Fort Rucker / Ozark, AL

2:10 PM CDT on September 23, 2017 (GMT -0500)
Fort Rucker / Ozark

Weather History for KHEY - October, 2013

Change the Weather History Date:

Friday, October 11, 2013

  Actual Average (KOZR) Record (KOZR)
Temperature  
Mean Temperature 70 °F -  
Max Temperature 84 °F 76 °F 89 °F (2014)
Min Temperature 57 °F 55 °F 39 °F (2000)
Cooling Degree Days 6    
Growing Degree Days 20 (Base 50)    
Moisture  
Dew Point 59 °F    
Average Humidity 72    
Maximum Humidity 93    
Minimum Humidity 40    
Precipitation  
Precipitation 0.00 in - - ()
Sea Level Pressure  
Sea Level Pressure 29.70 in    
Wind  
Wind Speed 1 mph (NW)    
Max Wind Speed 8 mph    
Max Gust Speed -    
Visibility 10 miles    
Events      
Averages and records for this station are not official NWS values.
T = Trace of Precipitation, MM = Missing Value Source: NWS Daily Summary

Daily Weather History Graph

Daily Weather History Graph

Search for Another Location

Airport or City:

Trip Planner

Search our weather history database for the weather conditions in past years. The results will help you decide how hot, cold, wet, or windy it might be!

Date:

Astronomy

Oct. 11, 2013 Rise Set
Actual Time 6:42 AM CDT 6:15 PM CDT
Civil Twilight 6:18 AM CDT 6:39 PM CDT
Nautical Twilight 5:50 AM CDT 7:07 PM CDT
Astronomical Twilight 5:22 AM CDT 7:35 PM CDT
Moon 1:12 PM CDT (10/11) No Moon Set
Length of Visible Light 12h 20m
Length of Day
11h 32m
Waxing Crescent, 47% of the Moon is Illuminated
Oct 11
Waxing Crescent
Oct 11
First Quarter
Oct 18
Full
Oct 26
Last Quarter
Nov 3
New

Hourly Weather History & Observations

Time (CDT) Temp. Heat Index Dew Point Humidity Pressure Visibility Wind Dir Wind Speed Gust Speed Precip Events Conditions
12:53 AM 61.0 °F - 57.9 °F 90% 29.70 in 10.0 mi Calm Calm - N/A   Clear
1:53 AM 61.0 °F - 57.0 °F 87% 29.69 in 10.0 mi Calm Calm - N/A   Clear
2:53 AM 60.1 °F - 57.0 °F 90% 29.69 in 8.0 mi Calm Calm - N/A   Clear
3:53 AM 59.0 °F - 55.9 °F 90% 29.69 in 10.0 mi Calm Calm - N/A   Clear
4:53 AM 57.9 °F - 55.0 °F 90% 29.70 in 10.0 mi Calm Calm - N/A   Clear
5:53 AM 57.9 °F - 55.9 °F 93% 29.71 in 10.0 mi Calm Calm - N/A   Clear
6:53 AM 57.9 °F - 55.0 °F 90% 29.72 in 10.0 mi Calm Calm - N/A   Clear
7:53 AM 63.0 °F - 59.0 °F 87% 29.74 in 10.0 mi Calm Calm - N/A   Clear
8:53 AM 72.0 °F - 63.0 °F 73% 29.75 in 10.0 mi Calm Calm - N/A   Clear
9:53 AM 77.0 °F - 62.1 °F 60% 29.75 in 10.0 mi NW 3.5 mph - N/A   Clear
10:53 AM 81.0 °F 81.7 °F 61.0 °F 50% 29.75 in 10.0 mi Variable 4.6 mph - N/A   Clear
11:53 AM 82.9 °F 82.6 °F 57.9 °F 42% 29.73 in 10.0 mi Variable 3.5 mph - N/A   Scattered Clouds
12:53 PM 82.0 °F 82.1 °F 59.0 °F 45% 29.71 in 10.0 mi NNW 8.1 mph - N/A   Scattered Clouds
1:53 PM 84.0 °F 83.5 °F 57.9 °F 41% 29.68 in 10.0 mi NW 8.1 mph - N/A   Scattered Clouds
2:53 PM 84.0 °F 83.3 °F 57.0 °F 40% 29.67 in 10.0 mi WNW 6.9 mph - N/A   Mostly Cloudy
3:53 PM 82.9 °F 82.8 °F 59.0 °F 44% 29.66 in 10.0 mi Variable 3.5 mph - N/A   Partly Cloudy
4:53 PM 82.9 °F 82.4 °F 57.0 °F 41% 29.65 in 10.0 mi NNW 5.8 mph - N/A   Clear
5:53 PM 78.1 °F - 62.1 °F 58% 29.65 in 10.0 mi Calm Calm - N/A   Clear
7:53 PM 68.0 °F - 63.0 °F 84% 29.68 in 10.0 mi Calm Calm - N/A   Clear
8:53 PM 66.0 °F - 62.1 °F 87% 29.69 in 10.0 mi Calm Calm - N/A   Clear
9:53 PM 64.0 °F - 61.0 °F 90% 29.70 in 9.0 mi Calm Calm - N/A   Clear
10:53 PM 64.0 °F - 60.1 °F 87% 29.69 in 8.0 mi Calm Calm - N/A   Clear
11:53 PM 63.0 °F - 59.0 °F 87% 29.69 in 8.0 mi Calm Calm - N/A   Clear